Hourly Data Report for May 05, 2012

All times are specified in Local Standard Time (LST). Add 1 hour to adjust for Daylight Saving Time where and when it is observed.

HAMILTON A
ONTARIO

43°10'25.000" N
79°56'06.000" W
237.70 m
6153193
71263
YHM

Download Data

Hourly Data (May 2012)
Hourly Data Report for May 5, 2012
Temp Definition
°C
Dew Point Temp Definition
°C
Rel Hum Definition
%
Wind Dir Definition
10's deg

Wind Spd Definition
km/h
Visibility Definition
km
Stn Press Definition
kPa
Hmdx Definition


Wind Chill Definition


Weather Definition


TIME
00:00 Legend Double Dagger 13.6 10.4 81 4 26 10.0 98.85     LegendNANA
01:00 Legend Double Dagger 12.7 8.6 76 5 27 10.0 98.84     Mostly Cloudy
02:00 Legend Double Dagger 11.6 7.7 77 5 26 10.0 98.88     LegendNANA
03:00 Legend Double Dagger 10.2 7.1 81 5 30 10.0 98.87     LegendNANA
04:00 Legend Double Dagger 9.5 6.4 81 5 27 10.0 98.89     Mainly Clear
05:00 Legend Double Dagger 8.7 5.5 80 6 29 10.0 98.93     LegendNANA
06:00 Legend Double Dagger 8.6 5.4 80 6 27 10.0 98.99     LegendNANA
07:00 Legend Double Dagger 9.5 5.5 76 5 30 10.0 99.04     Mainly Clear
08:00 Legend Double Dagger 9.9 5.1 72 5 39 10.0 99.06     LegendNANA
09:00 Legend Double Dagger 10.1 4.1 66 7 33 10.0 99.13     LegendNANA
10:00 Legend Double Dagger 10.4 3.5 62 5 33 10.0 99.16     Mostly Cloudy
11:00 Legend Double Dagger 10.0 2.9 61 6 37 10.0 99.18     LegendNANA
12:00 Legend Double Dagger 11.6 4.6 62 6 28 10.0 99.14     LegendNANA
13:00 Legend Double Dagger 12.1 5.1 62 4 31 10.0 99.09     Mostly Cloudy
14:00 Legend Double Dagger 12.6 4.9 59 3 32 10.0 99.09     LegendNANA
15:00 Legend Double Dagger 13.8 4.7 54 7 27 10.0 99.03     LegendNANA
16:00 Legend Double Dagger 13.7 1.7 44 4 28 10.0 99.00     Mainly Clear
17:00 Legend Double Dagger 12.2 0.7 45 4 26 10.0 99.06     LegendNANA
18:00 Legend Double Dagger 12.6 1.0 45 5 22 10.0 99.04     LegendNANA
19:00 Legend Double Dagger 11.1 0.3 47 5 14 10.0 99.08     Mostly Cloudy
20:00 Legend Double Dagger 9.0 0.7 56 36 6 10.0 99.13     LegendNANA
21:00 Legend Double Dagger 7.9 0.9 61 3 10 10.0 99.13     LegendNANA
22:00 Legend Double Dagger 7.7 0.7 61 2 13 10.0 99.12     Mainly Clear
23:00 Legend Double Dagger 7.5 0.3 60 3 14 10.0 99.14     LegendNANA

Notes on Data Quality.

Legend

  • E = Estimated
  • M = Missing
  • NA = Not Available
  • ‡ = Partner data that is not subject to review by the National Climate Archives
Date modified: